EHI
0 0 0 0 0 0 0 0 0 0 0 0 0 0 0 0 0 2 11 28 47 64 69 60 55 64 79 88 89 88 85 82 86 95 99 100 99 98 99 99 96 95 96 97
0 0 0 0 0 0 0 0 0 0 0 0 0 0 0 0 2 5 14 27 43 58 57 43 34 40 52 62 66 67 69 71 77 88 94 95 95 93 93 95 96 95 95 95
0 0 0 0 0 0 0 0 0 0 0 0 0 0 0 3 7 10 13 19 29 39 34 19 11 12 17 23 27 32 40 49 59 72 78 79 81 81 82 88 93 95 94 94
0 0 0 0 0 0 0 0 0 0 0 0 0 0 2 8 12 9 6 7 11 15 12 5 1 1 1 2 4 9 17 30 45 54 57 57 58 60 67 77 89 95 96 96
0 0 0 0 0 0 0 0 0 0 0 0 0 0 2 8 10 5 1 0 1 2 2 1 0 0 0 0 1 4 12 29 42 44 43 44 44 46 53 65 79 90 95 98
0 0 0 0 0 0 0 0 0 0 0 0 0 0 1 3 4 2 0 0 0 0 0 0 0 0 0 0 0 5 19 36 44 39 35 37 43 47 49 53 62 74 85 91
0 0 0 0 0 0 0 0 0 0 0 0 0 0 0 0 0 0 0 0 0 0 0 0 0 0 0 0 2 10 25 36 37 30 25 30 39 46 46 44 46 55 67 74
0 0 0 0 0 0 0 0 0 0 0 0 0 0 0 0 0 0 0 0 0 0 0 0 0 0 0 2 5 14 25 30 25 18 16 21 28 32 32 32 34 39 45 49
0 0 0 0 0 0 0 0 0 0 0 0 0 0 0 0 0 0 0 0 0 0 0 0 0 0 0 3 8 13 19 20 14 9 9 11 13 15 14 16 20 23 24 23
0 0 0 0 0 0 0 0 0 0 0 0 0 0 0 0 0 0 0 0 0 0 0 0 0 0 0 3 8 12 14 11 5 4 3 3 3 3 3 4 6 7 6 6
0 0 0 0 0 0 0 0 0 0 0 0 0 0 0 0 0 0 0 0 0 0 0 0 0 0 0 2 7 11 11 6 2 1 1 0 0 0 0 0 1 1 0 1
0 0 0 0 0 0 0 0 0 0 0 0 0 0 0 0 0 0 0 0 0 0 0 0 0 0 1 3 7 11 9 4 1 0 0 0 0 0 0 0 0 0 0 0
0 0 0 0 0 0 0 0 0 0 0 0 0 0 0 0 0 0 0 0 0 0 0 0 0 0 1 6 11 12 9 3 0 0 0 0 0 0 0 0 0 0 0 0
0 0 0 0 0 0 0 0 0 0 0 0 0 0 0 0 0 0 0 0 0 0 0 0 0 0 3 9 17 18 11 4 0 0 0 0 0 0 0 0 0 0 0 0
0 0 0 0 0 0 0 0 0 0 0 0 0 0 0 0 0 0 0 0 0 0 0 0 0 1 4 11 19 20 13 5 1 0 0 0 0 0 0 0 0 0 0 0
0 0 0 0 0 0 0 0 0 0 0 0 0 0 0 0 0 0 0 0 0 0 0 0 0 2 7 12 18 21 17 8 2 0 0 0 0 0 0 0 0 0 0 0
0 0 0 0 0 0 0 0 0 0 0 0 0 0 0 0 0 0 0 0 0 0 0 0 0 2 7 13 22 28 22 10 3 1 0 0 0 0 0 0 0 0 0 0
0 0 0 0 0 0 0 0 0 0 0 0 1 1 0 0 0 0 0 0 0 0 0 0 1 1 4 9 21 29 21 9 3 1 0 0 0 0 0 0 0 0 0 0
0 0 0 0 0 0 0 0 0 0 0 0 1 1 0 0 0 0 0 0 0 0 0 0 1 3 8 11 16 20 16 7 3 1 0 0 0 0 0 0 0 0 0 0
0 0 0 0 0 0 0 0 0 0 0 0 1 1 0 0 0 0 0 0 0 0 0 0 1 10 27 36 34 27 17 8 3 1 0 0 0 0 0 0 0 0 0 0
0 0 0 0 0 0 0 0 0 0 0 0 0 0 0 0 0 0 0 0 0 0 0 0 2 15 43 67 69 51 26 12 6 2 0 0 0 0 0 0 0 0 0 0
0 0 0 0 0 0 0 0 0 0 0 0 0 0 0 0 0 0 0 0 0 0 0 0 1 11 37 69 82 68 40 18 8 3 1 0 0 0 0 0 0 0 0 0
0 0 0 0 0 0 0 0 0 0 0 0 0 0 0 0 0 0 0 0 0 0 0 0 0 5 19 42 65 68 48 23 8 3 1 1 0 0 0 0 0 0 0 0
0 0 0 0 0 0 0 0 0 0 0 0 0 0 0 0 0 0 0 0 0 0 0 0 0 1 5 16 35 50 42 21 7 2 1 2 1 0 0 0 0 0 0 0
0 0 0 0 0 0 0 0 0 0 0 0 0 0 0 0 0 0 0 0 0 0 0 0 0 0 1 4 13 24 25 15 5 1 1 1 0 0 0 0 0 0 0 0
0 0 0 0 0 0 0 0 0 0 0 0 0 0 0 0 0 0 0 0 0 0 0 0 0 0 0 1 4 9 13 11 4 1 0 0 0 0 0 0 0 0 0 0
Wind_Speed
10 10 10 4 6 10 12 13 13 11 3 3 7 12 16 15 6 5 3 3 1 1 3 1 2 3 2 2 2 3 4 4 3 3 4 4 5 5 6 7 8 7 6 6
7 9 4 6 5 9 11 10 12 11 8 9 11 14 16 17 13 4 1 1 2 3 4 4 4 3 2 2 3 4 3 4 4 4 3 4 5 5 6 6 7 8 8 7
9 4 5 5 9 9 10 11 11 13 16 16 19 21 21 20 8 9 5 2 1 3 5 6 4 2 1 1 3 4 3 3 5 5 5 6 5 6 7 7 6 8 8 8
8 2 1 7 12 10 8 10 12 12 14 15 18 17 16 5 12 10 7 6 6 3 2 2 1 2 3 3 4 3 3 4 4 5 6 8 8 9 8 7 6 7 8 9
7 4 5 8 10 9 9 12 14 16 17 18 18 17 14 3 13 9 7 7 6 4 2 1 2 2 3 5 5 5 5 4 4 5 7 8 10 9 8 8 8 8 7 8
7 5 6 8 9 7 7 11 16 18 16 17 11 12 8 5 11 13 10 7 5 4 4 4 3 2 2 4 4 5 5 6 6 7 8 9 10 10 11 11 10 8 6 6
7 8 6 5 8 6 6 9 10 10 7 3 2 9 6 7 8 9 8 6 3 4 4 4 3 3 3 4 4 4 5 6 7 8 9 9 9 9 10 9 9 8 7 6
6 5 4 3 5 7 6 8 8 10 11 13 12 9 2 9 7 5 2 2 4 6 5 3 3 3 2 3 3 4 5 6 8 9 9 8 8 6 5 7 7 7 6 6
6 7 6 5 2 5 7 7 10 10 12 15 10 8 5 8 3 1 3 5 6 6 6 7 5 3 4 4 3 3 4 6 8 8 8 6 5 5 5 5 5 5 4 4
7 11 12 8 7 9 9 8 6 7 9 12 12 12 5 3 3 4 4 7 8 8 9 8 4 4 4 3 1 1 1 3 5 5 5 4 5 5 6 6 7 6 6 5
13 13 13 12 11 11 9 10 10 9 9 11 14 11 10 9 7 7 7 8 9 11 13 8 4 4 3 3 2 2 2 2 2 3 3 4 4 5 6 6 7 7 7 8
10 11 11 13 13 13 11 9 9 9 11 13 14 14 9 6 8 9 9 8 8 8 9 7 5 3 3 3 4 3 3 3 2 1 2 2 3 4 5 6 7 7 7 7
7 7 11 10 7 5 7 10 12 12 11 12 15 13 7 8 12 11 10 9 8 8 8 6 4 4 4 3 4 4 4 4 4 4 3 2 1 2 4 4 5 5 6 6
4 8 11 13 15 16 15 16 16 15 12 15 17 19 16 14 13 11 10 9 10 9 8 6 4 3 3 3 3 4 4 4 5 5 4 3 1 1 2 3 3 3 3 3
4 8 11 14 17 19 20 19 17 16 16 17 17 17 15 13 13 11 11 12 13 12 11 7 4 3 2 3 4 5 5 5 5 5 5 4 3 2 1 2 1 1 1 1
6 10 14 17 19 20 20 17 15 12 12 12 13 14 14 13 12 12 13 14 16 15 12 8 5 3 3 4 4 5 4 4 5 5 5 5 5 4 2 2 2 2 1 1
10 11 14 16 18 18 15 11 8 8 10 12 14 14 15 13 14 14 14 15 17 13 10 8 6 4 3 4 4 4 4 5 5 5 5 6 7 5 4 3 3 3 2 2
7 7 7 13 16 16 10 10 11 10 9 15 15 15 16 16 16 14 13 12 12 13 12 10 7 6 5 5 6 6 6 5 5 5 6 7 8 7 5 3 3 3 3 3
5 4 7 10 14 14 11 12 11 9 7 18 17 18 19 21 19 15 17 18 16 16 12 9 9 8 6 5 6 6 6 6 6 6 6 8 9 8 7 5 4 3 4 4
8 8 8 10 14 14 10 15 12 9 4 19 20 20 20 20 15 14 20 21 20 19 15 12 10 8 6 6 6 6 7 7 7 6 7 9 10 10 9 6 5 4 5 4
6 8 11 12 12 4 13 15 13 7 10 20 21 20 20 17 15 18 22 21 20 18 18 17 14 8 6 6 7 8 7 7 7 6 7 9 10 10 9 7 5 5 5 4
12 11 9 7 9 4 19 13 10 9 13 16 17 18 19 20 21 23 24 23 23 22 20 19 16 13 8 7 8 9 9 7 6 6 7 9 10 11 11 9 7 6 6 6
8 9 6 6 6 8 12 11 8 9 11 12 13 15 16 19 20 21 23 23 22 21 20 18 16 15 14 9 8 11 9 7 6 6 7 8 10 9 8 11 10 8 6 6
8 12 8 6 9 7 12 12 11 11 11 13 14 15 14 15 16 17 18 19 21 19 18 17 17 16 15 14 10 10 9 8 7 7 7 8 8 8 8 9 9 9 9 7
8 9 7 7 8 9 11 13 13 14 15 16 17 17 18 18 19 18 15 15 15 17 16 15 14 15 14 14 15 13 11 9 9 8 8 9 9 9 9 9 7 8 7 7
7 8 7 5 7 8 11 13 15 16 17 19 21 22 20 20 22 21 17 14 14 15 15 15 16 16 15 12 14 14 11 11 10 9 9 9 8 8 8 8 7 6 3 7
Wind_Direction
222 238 260 323 354 332 320 314 319 316 8 338 294 288 290 291 253 229 224 131 119 98 95 71 291 291 274 294 300 279 275 287 285 279 275 270 270 272 275 276 271 268 262 248
243 254 301 26 340 300 291 295 292 292 329 323 300 285 278 272 259 196 160 126 164 158 160 186 217 239 261 300 318 304 295 313 303 286 285 272 272 270 263 257 264 261 259 255
281 63 24 305 265 260 283 300 311 326 328 313 297 282 271 258 182 128 146 164 172 159 167 175 187 175 244 322 312 309 337 316 304 308 296 282 273 263 260 251 244 238 239 239
284 259 234 283 283 285 285 316 332 315 298 289 287 290 289 253 144 151 154 154 149 145 149 138 71 34 337 333 324 333 320 291 283 283 279 281 280 275 273 272 264 251 240 238
290 316 286 274 286 308 310 319 308 288 277 275 272 272 278 196 148 147 157 162 161 166 212 250 278 296 313 326 333 328 314 307 296 279 272 272 271 271 273 274 271 261 252 241
302 300 281 285 301 304 306 298 284 269 258 261 303 315 308 77 142 155 168 176 178 225 246 243 254 279 312 323 320 319 333 332 323 306 292 278 274 275 277 280 281 278 265 246
276 271 262 266 282 288 286 295 301 309 298 258 290 278 281 132 128 147 161 169 208 264 278 281 300 308 300 297 298 319 336 335 325 313 305 296 288 283 279 280 281 280 273 257
299 309 265 264 304 308 281 272 286 314 320 320 303 286 348 112 107 109 139 231 265 278 277 284 284 268 291 309 328 353 355 338 329 322 316 314 312 307 306 304 297 288 279 266
308 306 310 275 248 288 284 279 311 314 297 291 297 324 86 100 93 179 241 255 265 282 297 290 281 324 356 352 4 3 353 340 334 332 333 340 353 357 348 339 326 315 304 288
291 297 299 287 209 220 240 288 310 299 298 303 308 317 22 50 274 252 286 307 298 298 308 311 343 355 353 348 344 320 337 330 333 337 341 3 12 16 13 14 11 2 357 352
321 306 295 287 273 273 255 245 261 280 290 299 300 301 317 335 326 314 319 321 323 329 329 325 337 334 329 318 279 217 237 269 306 333 351 3 11 17 18 19 15 15 18 18
320 315 309 302 296 290 281 275 286 285 283 282 284 290 306 349 330 322 323 328 338 338 325 317 314 320 318 299 274 247 231 236 236 258 307 345 2 13 19 22 18 15 16 14
349 327 308 300 310 291 281 280 278 276 276 275 278 284 298 312 311 317 323 331 333 325 320 313 304 297 297 284 270 264 247 233 222 221 241 269 327 22 29 28 25 16 9 5
268 277 277 288 299 306 295 286 285 285 283 285 287 298 309 316 320 325 335 339 329 322 315 302 280 270 286 279 265 262 257 237 230 219 227 232 239 58 67 59 44 18 354 348
262 282 290 294 297 295 291 289 290 288 288 288 295 303 321 346 350 353 350 343 332 323 312 299 278 264 259 259 252 254 245 237 237 229 227 215 196 186 152 124 130 140 308 355
308 293 295 290 290 292 292 290 290 293 301 309 320 327 346 351 356 359 353 339 325 314 310 308 304 289 261 245 249 250 240 231 228 233 227 201 189 189 173 164 162 151 159 155
277 288 292 290 297 298 294 304 310 308 316 333 334 343 356 359 360 353 340 324 317 316 321 319 308 288 250 232 230 233 232 228 227 230 218 192 187 187 185 190 157 148 149 132
257 283 286 284 289 283 291 357 351 335 3 8 2 3 358 350 342 331 328 339 342 332 320 311 301 290 261 228 217 215 221 223 226 223 208 191 184 182 184 179 153 159 131 106
180 239 279 287 289 295 331 21 11 351 10 29 4 354 349 342 330 327 342 339 327 317 302 285 273 266 258 239 226 219 215 216 226 223 201 188 184 181 180 179 168 152 129 128
182 200 244 271 287 296 353 1 352 315 298 18 1 354 350 348 336 330 333 328 327 326 315 298 278 257 236 226 220 221 221 213 218 215 193 183 182 181 182 181 175 159 144 156
264 243 244 258 264 258 21 1 354 339 351 359 359 356 351 344 330 325 330 330 329 328 328 330 317 278 231 213 206 215 225 223 214 205 185 179 182 184 183 179 178 166 164 164
304 298 298 303 294 338 15 30 37 2 349 354 354 352 346 337 333 333 330 328 328 330 331 335 335 321 276 222 207 212 219 220 213 201 185 178 179 190 187 180 181 178 172 159
13 7 345 27 64 80 50 56 35 8 354 347 342 340 336 331 330 329 327 324 324 327 327 330 332 330 314 272 223 218 214 209 216 204 185 177 183 197 180 178 182 179 176 175
21 2 352 64 77 77 55 33 13 356 338 328 323 318 314 310 309 311 312 313 315 318 321 324 328 327 328 315 268 230 216 205 210 206 182 175 180 184 178 180 184 185 184 184
14 7 7 37 11 352 8 359 343 331 322 315 309 303 300 298 297 296 294 295 300 307 311 314 316 320 320 326 306 258 221 209 209 203 184 178 179 176 175 181 183 190 188 188
34 23 14 10 2 327 318 316 309 303 299 298 299 302 306 309 308 308 305 303 302 303 307 310 313 314 317 317 317 295 244 212 205 202 188 185 180 175 173 168 147 60 109 165